Flag for Russia Weather past 2 weeks in Novorossiysk, Russia

Now
34 °F

Clear.


Feels Like: 20 °F
Forecast: 23 / 42 °F
Wind: 29 mph from East

Location: Anapa / Vitiazevo

Current Time: Oct 25, 2014 at 7:47:56 PM

Latest Report: Oct 25, 2014 at 7:30 PM


Visibility: 10 mi

Pressure: 30.24 "Hg

Humidity: 75%

Dew point: 27 °F

Location of NovorossiyskLocation

Historic Weather in Novorossiysk — Graph

°F

Novorossiysk temperature yesterday

Maximum temperature yesterday: 52 °F (at 12:00 AM)
Minimum temperature yesterday: 37 °F (at 10:00 PM)
Average temperature yesterday: 42 °F

Past Weeks' High & Low Weather Summary

 TemperatureHumidityPressure
High75 °F (Oct 12, 12:30 PM)100% (Oct 17, 10:30 PM)30.33 "Hg (Oct 17, 10:30 PM)
Low30 °F (Oct 20, 6:00 AM)29% (Oct 23, 3:00 PM)29.62 "Hg (Oct 18, 1:00 PM)
Average56 °F77%29.98 "Hg
* Reported Oct 10 6:00 PM — Oct 25 6:30 PM, Novorossiysk, Weather by CustomWeather, © 2014

Note: Actual official high and low records may vary slightly from our data, if they occured in-between our weather recording intervals... More about our weather records

Advertising

Novorossiysk weather history for previous 24 hours

 ConditionsComfort  
Time TempWeatherWind HumidityBarometerVisibility
6:30 PM
Oct 25
36 °FSunny.33 mph70%30.24 "Hg10 mi
6:00 PM36 °FSunny.33 mph75%30.21 "Hg10 mi
5:30 PM37 °FScattered clouds.36 mph70%30.21 "HgN/A
5:00 PM39 °FScattered clouds.38 mph70%30.21 "HgN/A
4:30 PM39 °FScattered clouds.36 mph65%30.21 "HgN/A
4:00 PM39 °FScattered clouds.33 mph70%30.21 "HgN/A
3:30 PM39 °FBroken clouds.36 mph70%30.21 "HgN/A
3:00 PM39 °FBroken clouds.36 mph70%30.21 "HgN/A
2:30 PM37 °FPartly sunny.31 mph75%30.21 "HgN/A
2:00 PM37 °FPartly sunny.33 mph81%30.18 "HgN/A
1:30 PM37 °FPartly sunny.31 mph81%30.21 "HgN/A
1:00 PM36 °FMostly cloudy.31 mph81%30.21 "HgN/A
12:30 PM34 °FMostly cloudy.20 mph87%30.21 "HgN/A
12:00 PM34 °FMostly cloudy.20 mph87%30.21 "HgN/A
11:30 AM34 °FMostly cloudy.17 mph87%30.21 "HgN/A
11:00 AM32 °FMostly cloudy.20 mph93%30.21 "HgN/A
10:30 AM32 °FMostly cloudy.17 mph87%30.21 "HgN/A
10:00 AM32 °FMostly cloudy.15 mph87%30.21 "HgN/A
9:30 AM32 °FMostly cloudy.17 mph87%30.18 "HgN/A
9:00 AM32 °FLight freezing rain. Mostly cloudy.15 mph87%30.18 "HgN/A
8:30 AM32 °FLight freezing rain. Mostly cloudy.17 mph87%30.15 "HgN/A
8:00 AM32 °FLight freezing rain. Mostly cloudy.15 mph87%30.15 "HgN/A
7:30 AM32 °FLight freezing rain. Mostly cloudy.17 mph93%30.15 "HgN/A
6:30 AM32 °FSprinkles. Overcast.22 mph87%30.09 "HgN/A
6:00 AM32 °FSprinkles. Overcast.22 mph87%30.09 "HgN/A
5:00 AM32 °FSprinkles. Mostly cloudy.36 mph87%30.09 "HgN/A
4:00 AM34 °FSprinkles. Mostly cloudy.33 mph81%30.09 "HgN/A
3:00 AM34 °FSprinkles. Mostly cloudy.33 mph81%30.09 "HgN/A
2:00 AM34 °FSprinkles. Mostly cloudy.29 mph81%30.09 "HgN/A
1:00 AM34 °FSprinkles. Mostly cloudy.29 mph87%30.09 "HgN/A
12:00 AM36 °FMostly cloudy.31 mph81%30.09 "HgN/A
11:00 PM
Oct 24
37 °FMostly cloudy.31 mph81%30.07 "HgN/A
10:00 PM37 °FMostly cloudy.33 mph87%30.04 "HgN/A
9:00 PM39 °FMostly cloudy.31 mph81%30.04 "HgN/A
8:00 PM39 °FMostly cloudy.29 mph87%30.04 "HgN/A
7:30 PM39 °FMostly cloudy.31 mph87%30.04 "HgN/A
7:00 PM39 °FMostly cloudy.29 mph87%30.04 "HgN/A
Weather by CustomWeather, © 2014

See weather overviewHow to use our weather pages